Time,TemperatureF,DewpointF,PressureIn,WindDirection,WindDirectionDegrees,WindSpeedMPH,WindSpeedGustMPH,Humidity,HourlyPrecipIn,Conditions,Clouds,dailyrainin,SoftwareType,DateUTC
2013-10-03 00:13:00,43.0,42.0,30.06,West,278,0.0,1.0,96,0.00,,,0.11,,2013-10-03 05:13:00,
2013-10-03 00:23:00,42.0,41.0,30.06,West,278,0.0,0.0,96,0.00,,,0.11,,2013-10-03 05:23:00,
2013-10-03 00:43:00,41.0,40.0,30.06,West,278,0.0,0.0,96,0.01,,,0.12,,2013-10-03 05:43:00,
2013-10-03 00:52:00,40.0,39.0,30.06,West,278,0.0,0.0,96,0.01,,,0.12,,2013-10-03 05:52:00,
2013-10-03 01:12:00,40.0,39.0,30.06,West,278,0.0,0.0,96,0.01,,,0.12,,2013-10-03 06:12:00,
2013-10-03 01:22:00,40.0,39.0,30.05,West,278,0.0,0.0,97,0.01,,,0.12,,2013-10-03 06:22:00,
2013-10-03 01:42:00,39.0,38.0,30.04,West,278,0.0,0.0,97,0.00,,,0.12,,2013-10-03 06:42:00,
2013-10-03 01:52:00,38.0,37.0,30.04,West,278,0.0,0.0,97,0.00,,,0.12,,2013-10-03 06:52:00,
2013-10-03 02:11:00,38.0,37.0,30.04,West,278,0.0,0.0,96,0.00,,,0.12,,2013-10-03 07:11:00,
2013-10-03 02:22:00,37.0,36.0,30.04,West,278,0.0,0.0,97,0.00,,,0.12,,2013-10-03 07:22:00,
2013-10-03 02:52:00,38.0,37.0,30.04,West,278,0.0,0.0,97,0.00,,,0.12,,2013-10-03 07:52:00,
2013-10-03 03:12:00,38.0,37.0,30.05,West,280,0.0,1.0,97,0.00,,,0.12,,2013-10-03 08:12:00,
2013-10-03 03:22:00,38.0,37.0,30.05,West,266,0.0,1.0,97,0.00,,,0.12,,2013-10-03 08:22:00,
2013-10-03 03:42:00,37.0,36.0,30.05,West,271,0.0,1.0,97,0.00,,,0.12,,2013-10-03 08:42:00,
2013-10-03 03:52:00,37.0,36.0,30.05,West,271,0.0,0.0,97,0.00,,,0.12,,2013-10-03 08:52:00,
2013-10-03 04:12:00,37.0,36.0,30.04,West,271,0.0,0.0,97,0.00,,,0.12,,2013-10-03 09:12:00,
2013-10-03 04:22:00,38.0,37.0,30.03,NNW,335,0.0,0.0,97,0.00,,,0.12,,2013-10-03 09:22:00,
2013-10-03 04:43:00,38.0,37.0,30.04,NW,325,0.0,1.0,98,0.00,,,0.12,,2013-10-03 09:43:00,
2013-10-03 04:53:00,38.0,37.0,30.05,WNW,283,0.0,1.0,97,0.00,,,0.12,,2013-10-03 09:53:00,
2013-10-03 05:13:00,39.0,38.0,30.04,WSW,239,0.0,0.0,98,0.00,,,0.12,,2013-10-03 10:13:00,
2013-10-03 05:23:00,40.0,39.0,30.04,WSW,239,0.0,0.0,98,0.00,,,0.12,,2013-10-03 10:23:00,
2013-10-03 05:43:00,40.0,39.0,30.04,ESE,118,0.0,0.0,98,0.00,,,0.12,,2013-10-03 10:43:00,
2013-10-03 05:52:00,41.0,40.0,30.06,SE,132,0.0,2.0,98,0.00,,,0.12,,2013-10-03 10:52:00,
2013-10-03 06:12:00,41.0,40.0,30.06,SE,132,0.0,0.0,98,0.00,,,0.12,,2013-10-03 11:12:00,
2013-10-03 06:23:00,41.0,40.0,30.07,SSW,195,0.0,1.0,98,0.00,,,0.12,,2013-10-03 11:23:00,
2013-10-03 06:42:00,41.0,40.0,30.07,SSW,193,0.0,1.0,98,0.00,,,0.12,,2013-10-03 11:42:00,
2013-10-03 06:52:00,40.0,39.0,30.07,SSW,197,0.0,0.0,98,0.00,,,0.12,,2013-10-03 11:52:00,
2013-10-03 07:12:00,40.0,39.0,30.07,SE,128,0.0,0.0,98,0.00,,,0.12,,2013-10-03 12:12:00,
2013-10-03 07:22:00,41.0,40.0,30.06,ESE,105,0.0,1.0,98,0.00,,,0.12,,2013-10-03 12:22:00,
2013-10-03 07:42:00,42.0,41.0,30.05,NE,39,0.0,2.0,98,0.00,,,0.12,,2013-10-03 12:42:00,
2013-10-03 07:52:00,42.0,41.0,30.06,NNE,21,1.0,3.0,98,0.00,,,0.12,,2013-10-03 12:52:00,
2013-10-03 08:11:00,42.0,41.0,30.06,North,7,2.0,3.0,98,0.00,,,0.12,,2013-10-03 13:11:00,
2013-10-03 08:22:00,42.0,41.0,30.08,West,274,1.0,3.0,97,0.00,,,0.12,,2013-10-03 13:22:00,
2013-10-03 08:42:00,43.0,42.0,30.09,WNW,295,1.0,2.0,96,0.00,,,0.12,,2013-10-03 13:42:00,
2013-10-03 08:52:00,43.0,42.0,30.09,North,356,0.0,4.0,95,0.00,,,0.12,,2013-10-03 13:52:00,
2013-10-03 09:11:00,43.0,41.0,30.10,West,276,0.0,3.0,94,0.00,,,0.12,,2013-10-03 14:11:00,
2013-10-03 09:22:00,43.0,41.0,30.11,West,276,0.0,2.0,94,0.00,,,0.12,,2013-10-03 14:22:00,
2013-10-03 09:42:00,44.0,42.0,30.12,NW,311,2.0,4.0,93,0.00,,,0.12,,2013-10-03 14:42:00,
2013-10-03 09:52:00,44.0,42.0,30.13,WSW,257,0.0,2.0,93,0.00,,,0.12,,2013-10-03 14:52:00,
2013-10-03 10:11:00,45.0,43.0,30.13,North,11,1.0,3.0,92,0.00,,,0.12,,2013-10-03 15:11:00,
2013-10-03 10:22:00,45.0,43.0,30.12,NNE,18,4.0,7.0,92,0.00,,,0.12,,2013-10-03 15:22:00,
2013-10-03 10:43:00,45.0,43.0,30.12,North,354,3.0,8.0,92,0.00,,,0.12,,2013-10-03 15:43:00,
2013-10-03 10:53:00,45.0,43.0,30.12,NNW,328,3.0,6.0,92,0.00,,,0.12,,2013-10-03 15:53:00,
2013-10-03 11:12:00,46.0,44.0,30.12,NW,324,4.0,7.0,92,0.00,,,0.12,,2013-10-03 16:12:00,
2013-10-03 11:23:00,47.0,45.0,30.12,North,11,5.0,7.0,92,0.00,,,0.12,,2013-10-03 16:23:00,
2013-10-03 11:42:00,47.0,45.0,30.12,NW,325,4.0,11.0,92,0.00,,,0.06,,2013-10-03 16:42:00,
2013-10-03 11:53:00,47.0,45.0,30.12,WNW,302,4.0,8.0,92,0.00,,,0.06,,2013-10-03 16:53:00,
2013-10-03 12:12:00,48.0,45.0,30.12,NW,325,5.0,9.0,91,0.00,,,0.06,,2013-10-03 17:12:00,
2013-10-03 12:22:00,48.0,45.0,30.11,ENE,59,5.0,13.0,91,0.00,,,0.06,,2013-10-03 17:22:00,
2013-10-03 12:42:00,49.0,46.0,30.12,North,11,7.0,12.0,90,0.00,,,0.02,,2013-10-03 17:42:00,
2013-10-03 12:52:00,49.0,46.0,30.11,North,1,6.0,13.0,90,0.00,,,0.02,,2013-10-03 17:52:00,
2013-10-03 13:12:00,50.0,47.0,30.11,NNE,30,9.0,12.0,89,0.00,,,0.02,,2013-10-03 18:12:00,
2013-10-03 13:22:00,50.0,47.0,30.11,North,11,8.0,14.0,88,0.00,,,0.02,,2013-10-03 18:22:00,
2013-10-03 13:42:00,50.0,47.0,30.11,NNW,335,5.0,10.0,88,0.00,,,0.01,,2013-10-03 18:42:00,
2013-10-03 13:52:00,51.0,47.0,30.11,North,8,6.0,11.0,86,0.00,,,0.01,,2013-10-03 18:52:00,
2013-10-03 14:11:00,51.0,46.0,30.11,North,1,6.0,10.0,84,0.00,,,0.01,,2013-10-03 19:11:00,
2013-10-03 14:22:00,52.0,47.0,30.11,NE,51,4.0,11.0,83,0.00,,,0.01,,2013-10-03 19:22:00,
2013-10-03 14:42:00,53.0,47.0,30.12,NNW,337,5.0,12.0,80,0.00,,,0.01,,2013-10-03 19:42:00,
2013-10-03 14:52:00,54.0,47.0,30.11,North,354,7.0,14.0,78,0.00,,,0.01,,2013-10-03 19:52:00,
2013-10-03 15:11:00,54.0,47.0,30.12,NE,39,5.0,11.0,76,0.00,,,0.01,,2013-10-03 20:11:00,
2013-10-03 15:21:00,54.0,46.0,30.12,NNE,30,9.0,12.0,74,0.00,,,0.01,,2013-10-03 20:21:00,
2013-10-03 15:42:00,54.0,46.0,30.11,North,11,5.0,11.0,75,0.00,,,0.01,,2013-10-03 20:42:00,
2013-10-03 15:52:00,55.0,47.0,30.11,NNW,342,6.0,12.0,73,0.00,,,0.01,,2013-10-03 20:52:00,
2013-10-03 16:12:00,55.0,47.0,30.12,NNW,346,7.0,14.0,73,0.00,,,0.01,,2013-10-03 21:12:00,
2013-10-03 16:21:00,55.0,47.0,30.12,NNW,338,7.0,12.0,74,0.00,,,0.01,,2013-10-03 21:21:00,
2013-10-03 16:43:00,55.0,47.0,30.12,NNE,17,6.0,11.0,73,0.00,,,0.01,,2013-10-03 21:43:00,
2013-10-03 16:54:00,55.0,47.0,30.11,North,352,4.0,9.0,75,0.00,,,0.01,,2013-10-03 21:54:00,
2013-10-03 17:13:00,55.0,47.0,30.11,North,1,7.0,11.0,73,0.00,,,0.01,,2013-10-03 22:13:00,
2013-10-03 17:23:00,55.0,47.0,30.12,NNE,19,6.0,10.0,73,0.00,,,0.01,,2013-10-03 22:23:00,
2013-10-03 17:43:00,54.0,46.0,30.12,NNE,16,4.0,8.0,73,0.00,,,0.01,,2013-10-03 22:43:00,
2013-10-03 17:54:00,54.0,46.0,30.11,NNE,25,4.0,6.0,74,0.00,,,0.01,,2013-10-03 22:54:00,
2013-10-03 18:12:00,54.0,46.0,30.12,North,3,3.0,6.0,74,0.00,,,0.01,,2013-10-03 23:12:00,
2013-10-03 18:22:00,54.0,47.0,30.13,NNW,335,1.0,4.0,76,0.00,,,0.01,,2013-10-03 23:22:00,
2013-10-03 18:43:00,54.0,46.0,30.14,NNW,333,3.0,6.0,73,0.00,,,0.01,,2013-10-03 23:43:00,
2013-10-03 18:52:00,54.0,46.0,30.14,NNE,21,3.0,6.0,73,0.00,,,0.01,,2013-10-03 23:52:00,
2013-10-03 19:12:00,53.0,45.0,30.15,North,356,2.0,5.0,73,0.00,,,0.01,,2013-10-04 00:12:00,
2013-10-03 19:22:00,53.0,45.0,30.15,NW,321,2.0,5.0,74,0.00,,,0.01,,2013-10-04 00:22:00,
2013-10-03 19:42:00,53.0,45.0,30.14,NNW,335,2.0,8.0,73,0.00,,,0.01,,2013-10-04 00:42:00,
2013-10-03 19:52:00,52.0,44.0,30.15,NNW,347,3.0,8.0,73,0.00,,,0.01,,2013-10-04 00:52:00,
2013-10-03 20:12:00,52.0,44.0,30.16,North,3,3.0,7.0,73,0.00,,,0.01,,2013-10-04 01:12:00,
2013-10-03 20:22:00,52.0,44.0,30.16,North,356,3.0,8.0,73,0.00,,,0.01,,2013-10-04 01:22:00,
2013-10-03 20:42:00,52.0,43.0,30.16,NNE,12,5.0,8.0,71,0.00,,,0.01,,2013-10-04 01:42:00,
2013-10-03 20:52:00,52.0,43.0,30.17,NW,321,5.0,10.0,71,0.00,,,0.01,,2013-10-04 01:52:00,
2013-10-03 21:12:00,51.0,42.0,30.18,NNW,335,5.0,10.0,71,0.00,,,0.01,,2013-10-04 02:12:00,
2013-10-03 21:22:00,51.0,43.0,30.18,NNE,25,5.0,11.0,73,0.00,,,0.01,,2013-10-04 02:22:00,
2013-10-03 21:43:00,50.0,42.0,30.19,NW,315,5.0,9.0,74,0.00,,,0.01,,2013-10-04 02:43:00,
2013-10-03 21:52:00,50.0,43.0,30.19,NW,311,5.0,10.0,76,0.00,,,0.01,,2013-10-04 02:52:00,
2013-10-03 22:12:00,49.0,42.0,30.20,NNE,23,5.0,8.0,78,0.00,,,0.01,,2013-10-04 03:12:00,
2013-10-03 22:22:00,48.0,42.0,30.20,NNW,343,5.0,9.0,79,0.00,,,0.01,,2013-10-04 03:22:00,
2013-10-03 22:44:00,48.0,42.0,30.21,North,6,3.0,9.0,81,0.00,,,0.01,,2013-10-04 03:44:00,
2013-10-03 22:57:00,47.0,42.0,30.21,NNE,12,3.0,9.0,82,0.00,,,0.01,,2013-10-04 03:57:00,
2013-10-03 23:58:00,46.0,42.0,30.22,North,356,5.0,9.0,86,0.00,,,0.01,,2013-10-04 04:58:00,